GW4857 Weather Reports


time (UTC)temp
C
wind
direction
speed
KPH
gust
KPH
rain 1hr
cm
rain 24hr
cm
rain mn
cm
humidity
%
barometer
mb
20260509213012 31 69 0.0 6.4 0.00 0.25 0.25 57 1009.0
20260509212509 31 68 0.0 8.0 0.00 0.25 0.25 56 1009.1
20260509212011 31 68 3.2 8.0 0.00 0.25 0.25 56 1009.2
20260509211515 30 49 1.6 6.4 0.00 0.25 0.25 58 1009.2
20260509211008 30 58 0.0 6.4 0.00 0.25 0.25 54 1009.3
20260509210507 30 58 0.0 6.4 0.00 0.25 0.25 56 1009.4
20260509210015 30 49 1.6 4.8 0.00 0.25 0.25 56 1009.4
20260509205509 30 49 0.0 6.4 0.00 0.25 0.25 57 1009.5
20260509205003 30 49 1.6 8.0 0.00 0.25 0.25 59 1009.7
20260509204508 30 49 1.6 8.0 0.00 0.25 0.25 57 1009.8
20260509204002 30 32 0.0 6.4 0.00 0.25 0.25 57 1009.8
20260509203503 30 23 1.6 6.4 0.00 0.25 0.25 59 1009.9
20260509203014 30 17 0.0 4.8 0.00 0.25 0.25 58 1010.0
20260509202507 30 17 0.0 4.8 0.00 0.25 0.25 64 1010.1
20260509202008 30 17 1.6 8.0 0.00 0.25 0.25 58 1010.2
20260509201516 30 17 0.0 8.0 0.00 0.25 0.25 58 1010.3
20260509201011 31 18 0.0 8.0 0.00 0.25 0.25 59 1010.5
20260509200506 30 18 3.2 8.0 0.00 0.25 0.25 56 1010.6
20260509200022 30 20 1.6 4.8 0.00 0.25 0.25 56 1010.6
20260509195513 29 20 1.6 4.8 0.00 0.25 0.25 60 1010.6
20260509195006 29 20 1.6 8.0 0.00 0.25 0.25 61 1010.6
20260509194524 30 1 1.6 8.0 0.00 0.25 0.25 60 1010.6
20260509194008 30 17 1.6 8.0 0.00 0.25 0.25 64 1010.5
20260509193508 29 17 4.8 11.3 0.00 0.25 0.25 64 1010.5
20260509193012 29 1 0.0 11.3 0.00 0.25 0.25 61 1010.6
20260509192507 30 10 3.2 11.3 0.00 0.25 0.25 69 1010.7
20260509192007 29 11 3.2 8.0 0.00 0.25 0.25 71 1010.7
20260509191518 28 1 1.6 11.3 0.00 0.25 0.25 70 1010.7
20260509191007 28 3 3.2 12.9 0.00 0.25 0.25 70 1010.9
20260509190507 28 8 1.6 12.9 0.00 0.25 0.25 75 1010.9
20260509190022 28 11 4.8 12.9 0.00 0.25 0.25 71 1011.0
20260509185507 27 33 1.6 9.7 0.00 0.25 0.25 80 1011.2
20260509185008 27 22 3.2 9.7 0.00 0.25 0.25 76 1011.2
20260509184540 27 11 3.2 8.0 0.00 0.25 0.25 79 1011.2
20260509184011 26 2 1.6 8.0 0.00 0.25 0.25 78 1011.3
20260509183508 26 27 1.6 8.0 0.00 0.25 0.25 81 1011.4
20260509183026 26 89 3.2 6.4 0.00 0.25 0.25 85 1011.4
20260509182510 25 100 0.0 0.0 0.00 0.25 0.25 85 1011.6
20260509182010 25 100 0.0 0.0 0.00 0.25 0.25 86 1011.7
20260509181514 25 100 0.0 3.2 0.00 0.25 0.25 88 1011.6
20260509181011 25 100 0.0 3.2 0.00 0.25 0.25 87 1011.7
20260509180514 24 100 0.0 3.2 0.00 0.25 0.25 87 1011.8
20260509180015 25 100 0.0 6.4 0.03 0.25 0.25 88 1011.9
20260509175507 25 100 0.0 6.4 0.15 0.25 0.25 86 1011.9
20260509175007 25 100 3.2 6.4 0.25 0.25 0.25 85 1011.8
20260509174528 25 141 0.0 3.2 0.25 0.25 0.25 86 1011.7
20260509174008 26 141 0.0 3.2 0.25 0.25 0.25 85 1011.8
20260509173513 26 141 0.0 3.2 0.25 0.25 0.25 89 1011.9
20260509173026 25 141 0.0 0.0 0.25 0.25 0.25 88 1011.9
20260509172510 25 141 0.0 0.0 0.25 0.25 0.25 90 1011.8
20260509172009 24 141 0.0 0.0 0.25 0.25 0.25 90 1012.0
20260509171525 24 141 0.0 1.6 0.25 0.25 0.25 89 1012.2
20260509171006 23 141 0.0 1.6 0.25 0.25 0.25 88 1012.3
20260509170510 24 141 0.0 3.2 0.25 0.25 0.25 89 1012.4
20260509170045 24 141 0.0 3.2 0.23 0.23 0.23 87 1012.3
20260509165505 25 141 0.0 4.8 0.10 0.10 0.10 83 1012.4
20260509165009 25 141 0.0 8.0 0.00 0.00 0.00 80 1012.2
20260509164518 25 141 1.6 17.7 0.00 0.00 0.00 78 1012.3
20260509164006 26 141 3.2 17.7 0.00 0.00 0.00 75 1012.1
20260509163512 27 192 3.2 12.9 0.00 0.00 0.00 74 1011.9
20260509163026 27 243 4.8 11.3 0.00 0.00 0.00 77 1012.1
20260509162511 27 162 4.8 11.3 0.00 0.00 0.00 79 1012.2
20260509162007 26 193 4.8 12.9 0.00 0.00 0.00 78 1012.2
20260509161523 27 105 4.8 12.9 0.00 0.00 0.00 78 1012.1
20260509161011 27 143 3.2 8.0 0.00 0.00 0.00 76 1012.0
20260509160511 27 172 1.6 4.8 0.00 0.00 0.00 73 1011.9
20260509160028 27 172 0.0 4.8 0.00 0.00 0.00 72 1011.9
20260509155507 27 174 1.6 4.8 0.00 0.00 0.00 75 1011.8
20260509155009 27 174 1.6 8.0 0.00 0.00 0.00 75 1011.8
20260509154529 27 174 3.2 8.0 0.00 0.00 0.00 74 1011.8
20260509154011 27 174 0.0 3.2 0.00 0.00 0.00 74 1011.7
20260509153502 28 174 0.0 6.4 0.00 0.00 0.00 72 1011.7
20260509153018 28 174 1.6 8.0 0.00 0.00 0.00 72 1011.6
20260509152502 27 201 1.6 8.0 0.00 0.00 0.00 74 1011.5
20260509152003 27 189 1.6 9.7 0.00 0.00 0.00 76 1011.4
20260509151504 27 181 1.6 9.7 0.00 0.00 0.00 75 1011.2
20260509151003 27 168 0.0 11.3 0.00 0.00 0.00 76 1011.2
20260509150506 27 168 3.2 12.9 0.00 0.00 0.00 76 1011.3
20260509150009 26 206 3.2 12.9 0.00 0.00 0.00 76 1011.3
20260509145505 26 239 4.8 11.3 0.00 0.00 0.00 77 1011.1
20260509145006 26 160 1.6 12.9 0.00 0.00 0.00 78 1011.1
20260509144517 26 187 6.4 16.1 0.00 0.00 0.00 78 1011.0
20260509144004 26 214 4.8 16.1 0.00 0.00 0.00 79 1010.9
20260509143506 26 167 3.2 16.1 0.00 0.00 0.00 81 1010.9
20260509143020 25 183 4.8 12.9 0.00 0.00 0.00 81 1010.9
20260509142504 25 188 3.2 12.9 0.00 0.00 0.00 82 1010.8
20260509142008 25 219 3.2 11.3 0.00 0.00 0.00 83 1010.7
20260509141536 25 215 3.2 9.7 0.00 0.00 0.00 84 1010.7
20260509141003 25 182 4.8 9.7 0.00 0.00 0.00 84 1010.7
20260509140506 24 207 3.2 9.7 0.00 0.00 0.00 87 1010.7
20260509140003 24 174 3.2 9.7 0.00 0.00 0.00 88 1010.7
20260509135506 23 188 1.6 6.4 0.00 0.00 0.00 89 1010.7
20260509135005 23 201 1.6 9.7 0.00 0.00 0.00 90 1010.9
20260509134524 23 206 3.2 9.7 0.00 0.00 0.00 91 1010.9
20260509134003 22 112 3.2 8.0 0.00 0.00 0.00 92 1010.6
20260509133506 22 251 1.6 8.0 0.00 0.00 0.00 92 1010.7
20260509133015 22 255 3.2 8.0 0.00 0.00 0.00 92 1010.5
20260509132510 22 184 1.6 8.0 0.00 0.00 0.00 93 1010.2
20260509132010 22 191 3.2 9.7 0.00 0.00 0.00 93 1010.6
20260509131526 22 165 3.2 9.7 0.00 0.00 0.00 93 1010.6
20260509131007 21 203 0.0 8.0 0.00 0.00 0.00 94 1010.6
20260509130506 21 203 1.6 8.0 0.00 0.00 0.00 94 1010.4
20260509130026 21 199 3.2 8.0 0.00 0.00 0.00 94 1010.4
20260509125505 21 194 3.2 8.0 0.00 0.00 0.00 94 1010.4
20260509125003 21 205 1.6 8.0 0.00 0.00 0.00 94 1010.3
20260509124511 21 112 1.6 6.4 0.00 0.00 0.00 94 1010.4
20260509124007 21 100 1.6 4.8 0.00 0.00 0.00 94 1010.7
20260509123506 21 63 1.6 4.8 0.00 0.00 0.00 94 1010.9
20260509123014 21 48 0.0 0.0 0.00 0.00 0.00 94 1010.7
20260509122506 21 48 0.0 0.0 0.00 0.00 0.00 94 1010.8
20260509122007 21 48 0.0 0.0 0.00 0.00 0.00 94 1010.9
20260509121523 21 48 0.0 0.0 0.00 0.00 0.00 94 1010.9
20260509121008 21 48 0.0 1.6 0.00 0.00 0.00 94 1011.0
20260509120507 21 48 0.0 1.6 0.00 0.00 0.00 94 1011.0
20260509120024 21 48 0.0 0.0 0.00 0.00 0.00 93 1011.1
20260509115508 21 48 0.0 1.6 0.00 0.00 0.00 94 1011.1
20260509115008 21 48 0.0 3.2 0.00 0.00 0.00 94 1011.2
20260509114533 21 48 0.0 3.2 0.00 0.00 0.00 94 1011.4
20260509114008 21 48 0.0 3.2 0.00 0.00 0.00 94 1011.7
20260509113507 21 48 0.0 0.0 0.00 0.00 0.00 94 1011.8
20260509113009 21 48 0.0 0.0 0.00 0.00 0.00 93 1011.8
20260509112505 21 48 0.0 0.0 0.00 0.00 0.00 93 1011.8
20260509112013 21 48 0.0 0.0 0.00 0.00 0.00 93 1011.9
20260509111513 21 48 0.0 1.6 0.00 0.00 0.00 93 1012.0
20260509111006 21 48 0.0 1.6 0.00 0.00 0.00 93 1012.1
20260509110507 21 48 0.0 1.6 0.00 0.00 0.00 93 1012.1
20260509110006 21 48 0.0 1.6 0.00 0.00 0.00 94 1012.2
20260509105510 21 48 0.0 1.6 0.00 0.00 0.00 94 1012.3
20260509105008 21 48 0.0 3.2 0.00 0.00 0.00 93 1012.5
20260509104513 21 48 0.0 3.2 0.00 0.00 0.00 93 1012.4
20260509104009 21 48 0.0 4.8 0.00 0.00 0.00 93 1012.5
20260509103510 21 48 0.0 6.4 0.00 0.00 0.00 93 1012.7
20260509103012 21 48 3.2 6.4 0.00 0.00 0.00 93 1012.5
20260509102510 21 48 0.0 3.2 0.00 0.00 0.00 93 1012.4
20260509102007 21 48 0.0 3.2 0.00 0.00 0.00 93 1012.1
20260509101516 21 48 1.6 4.8 0.00 0.00 0.00 93 1012.1
20260509101006 21 48 0.0 4.8 0.00 0.00 0.00 93 1012.2
20260509100505 21 48 1.6 4.8 0.00 0.00 0.00 93 1012.1
20260509100014 21 48 0.0 4.8 0.00 0.00 0.00 93 1012.1
20260509095509 21 48 0.0 4.8 0.00 0.00 0.00 93 1011.9
20260509095007 21 48 1.6 4.8 0.00 0.00 0.00 93 1011.7
20260509094518 21 48 1.6 6.4 0.00 0.00 0.00 93 1011.5
20260509094008 21 48 3.2 6.4 0.00 0.00 0.00 93 1011.5
20260509093508 21 54 1.6 6.4 0.00 0.00 0.00 93 1011.5
20260509093016 21 89 0.0 0.0 0.00 0.00 0.00 93 1011.5
20260509092508 21 89 0.0 0.0 0.00 0.00 0.00 93 1011.0
20260509092010 21 89 0.0 0.0 0.00 0.00 0.00 93 1010.9
20260509091523 21 89 0.0 0.0 0.00 0.00 0.00 93 1010.7
20260509091013 21 89 0.0 0.0 0.00 0.00 0.00 92 1010.5
20260509090507 21 89 0.0 0.0 0.00 0.00 0.00 92 1010.5
20260509090016 21 89 0.0 0.0 0.00 0.00 0.00 92 1010.6
20260509085506 21 89 0.0 4.8 0.00 0.00 0.00 92 1010.7
20260509085006 21 89 0.0 4.8 0.00 0.00 0.00 92 1010.7
20260509084524 21 89 0.0 0.0 0.00 0.00 0.00 92 1010.8
20260509084009 21 89 0.0 0.0 0.00 0.00 0.00 92 1010.9
20260509083507 21 89 0.0 0.0 0.00 0.00 0.00 92 1011.1
20260509083018 21 89 0.0 0.0 0.00 0.00 0.00 92 1011.3
20260509082509 21 89 0.0 0.0 0.00 0.00 0.00 92 1011.1
20260509082004 21 89 0.0 0.0 0.00 0.00 0.00 92 1011.1
20260509081508 21 89 0.0 0.0 0.00 0.00 0.00 92 1011.1
20260509081005 21 89 0.0 0.0 0.00 0.00 0.00 91 1011.1
20260509080504 21 89 0.0 0.0 0.00 0.00 0.00 91 1011.0
20260509080005 21 89 0.0 0.0 0.00 0.00 0.00 91 1011.1
20260509075504 22 89 0.0 0.0 0.00 0.00 0.00 91 1011.1
20260509075007 22 89 0.0 0.0 0.00 0.00 0.00 91 1011.3
20260509074504 22 89 0.0 0.0 0.00 0.00 0.00 91 1011.4
20260509074005 22 89 0.0 0.0 0.00 0.00 0.00 91 1011.8
20260509073505 22 89 0.0 0.0 0.00 0.00 0.00 91 1011.7
20260509073010 22 89 0.0 0.0 0.00 0.00 0.00 91 1011.4
20260509072504 22 89 0.0 0.0 0.00 0.00 0.00 91 1011.5
20260509072003 22 89 0.0 1.6 0.00 0.00 0.00 91 1011.8
20260509071505 22 89 0.0 1.6 0.00 0.00 0.00 91 1011.8
20260509071002 22 89 0.0 1.6 0.00 0.00 0.00 90 1011.8
20260509070508 22 89 0.0 3.2 0.00 0.00 0.00 90 1011.6
20260509070006 22 89 0.0 3.2 0.00 0.00 0.00 90 1011.5
20260509065508 22 89 0.0 1.6 0.00 0.00 0.00 90 1011.3
20260509065007 22 89 0.0 3.2 0.00 0.00 0.00 90 1011.4
20260509064505 22 89 0.0 3.2 0.00 0.00 0.00 90 1011.6
20260509064008 22 89 0.0 1.6 0.00 0.00 0.00 90 1011.5
20260509063506 22 89 0.0 3.2 0.00 0.00 0.00 90 1011.5
20260509063006 22 86 0.0 3.2 0.00 0.00 0.00 90 1011.5
20260509062508 22 85 0.0 1.6 0.00 0.00 0.00 90 1011.6
20260509062007 22 85 0.0 1.6 0.00 0.00 0.00 90 1011.7
20260509061502 22 85 0.0 3.2 0.00 0.00 0.00 90 1011.6
20260509061003 22 119 0.0 3.2 0.00 0.00 0.00 90 1011.4
20260509060503 22 119 0.0 3.2 0.00 0.00 0.00 90 1011.5
20260509060007 22 119 0.0 3.2 0.00 0.00 0.00 90 1011.5
20260509055504 22 119 0.0 1.6 0.00 0.00 0.00 89 1011.6
20260509055004 22 119 0.0 4.8 0.00 0.00 0.00 89 1011.5
20260509054510 22 119 0.0 4.8 0.00 0.00 0.00 89 1011.2
20260509054007 22 119 0.0 4.8 0.00 0.00 0.00 89 1010.9
20260509053507 22 119 1.6 4.8 0.00 0.00 0.00 89 1010.7
20260509053009 22 119 0.0 4.8 0.00 0.00 0.00 89 1010.4
20260509052507 22 119 1.6 4.8 0.00 0.00 0.00 89 1010.2
20260509052006 22 119 0.0 4.8 0.00 0.00 0.00 89 1010.2
20260509051509 22 120 0.0 3.2 0.00 0.00 0.00 89 1010.2
20260509051007 22 120 0.0 3.2 0.00 0.00 0.00 89 1010.2
20260509050502 22 120 0.0 3.2 0.00 0.00 0.00 89 1010.0
20260509050007 22 120 0.0 3.2 0.00 0.00 0.00 89 1010.0
20260509045503 22 120 0.0 3.2 0.00 0.00 0.00 88 1010.0
20260509045003 22 120 0.0 0.0 0.00 0.00 0.00 88 1010.0
20260509044511 22 120 0.0 0.0 0.00 0.00 0.00 88 1010.0
20260509044007 22 120 0.0 0.0 0.00 0.00 0.00 88 1010.2
20260509043503 22 120 0.0 4.8 0.00 0.00 0.00 88 1010.4
20260509043012 22 120 0.0 4.8 0.00 0.00 0.00 88 1010.6
20260509042509 22 120 0.0 4.8 0.00 0.00 0.00 88 1010.6
20260509042009 22 120 1.6 4.8 0.00 0.00 0.00 88 1010.6
20260509041514 22 120 0.0 4.8 0.00 0.00 0.00 88 1010.6
20260509041010 22 120 0.0 4.8 0.00 0.00 0.00 87 1010.6
20260509040505 22 120 1.6 4.8 0.00 0.00 0.00 88 1010.6
20260509040014 22 119 0.0 8.0 0.00 0.00 0.00 88 1010.6
20260509035509 22 119 1.6 8.0 0.00 0.00 0.00 88 1010.6
20260509035003 22 104 1.6 4.8 0.00 0.00 0.00 88 1010.6
20260509034506 22 101 0.0 6.4 0.00 0.00 0.00 88 1010.7
20260509034007 22 101 0.0 6.4 0.00 0.00 0.00 88 1010.6
20260509033505 22 101 0.0 4.8 0.00 0.00 0.00 88 1010.5
20260509033011 22 101 0.0 6.4 0.00 0.00 0.00 88 1010.4
20260509032504 22 101 0.0 6.4 0.00 0.00 0.00 89 1010.5
20260509032009 22 101 0.0 8.0 0.00 0.00 0.00 89 1010.4
20260509031515 21 101 1.6 8.0 0.00 0.00 0.00 89 1010.4
20260509031008 21 68 1.6 6.4 0.00 0.00 0.00 89 1010.1
20260509030508 21 60 1.6 6.4 0.00 0.00 0.00 89 1010.2
20260509030017 21 58 1.6 3.2 0.00 0.00 0.00 89 1010.1
20260509025508 21 58 0.0 3.2 0.00 0.00 0.00 89 1010.1
20260509025003 21 58 0.0 3.2 0.00 0.00 0.00 89 1010.0
20260509024519 21 58 0.0 6.4 0.00 0.00 0.00 89 1009.9
20260509024010 21 58 0.0 6.4 0.00 0.00 0.00 89 1009.9
20260509023505 21 57 0.0 3.2 0.00 0.00 0.00 88 1009.9
20260509023007 21 57 0.0 1.6 0.00 0.00 0.00 87 1010.0
20260509022504 21 57 0.0 3.2 0.00 0.00 0.00 87 1010.0
20260509022007 22 57 0.0 3.2 0.00 0.00 0.00 87 1010.0
20260509021510 22 57 0.0 3.2 0.00 0.00 0.00 87 1009.9
20260509021006 22 57 0.0 3.2 0.00 0.00 0.00 87 1009.8
20260509020504 22 57 0.0 3.2 0.00 0.00 0.00 86 1009.7
20260509020032 22 57 0.0 3.2 0.00 0.00 0.00 86 1009.6
20260509015508 22 57 0.0 3.2 0.00 0.00 0.00 86 1009.6
20260509015008 22 57 0.0 4.8 0.00 0.00 0.00 85 1009.5
20260509014537 22 57 0.0 4.8 0.00 0.00 0.00 85 1009.4
20260509014004 22 56 0.0 4.8 0.00 0.00 0.00 85 1009.4
20260509013508 22 53 0.0 4.8 0.00 0.00 0.00 85 1009.4
20260509013028 22 53 0.0 4.8 0.00 0.00 0.00 84 1009.4
20260509012506 22 53 0.0 4.8 0.00 0.00 0.00 84 1009.4
20260509012009 22 53 0.0 4.8 0.00 0.00 0.00 83 1009.3
20260509011506 22 53 1.6 6.4 0.00 0.00 0.00 83 1009.3
20260509011005 23 58 0.0 6.4 0.00 0.00 0.00 83 1009.2
20260509010506 23 60 1.6 6.4 0.00 0.00 0.00 83 1009.2
20260509010010 23 25 1.6 6.4 0.00 0.00 0.00 83 1009.3
20260509005507 23 24 1.6 4.8 0.00 0.00 0.00 83 1009.4
20260509005007 23 24 0.0 8.0 0.00 0.00 0.00 83 1009.4
20260509004521 23 24 3.2 8.0 0.00 0.00 0.00 82 1009.4
20260509004006 23 25 1.6 4.8 0.00 0.00 0.00 82 1009.3
20260509003514 23 29 0.0 6.4 0.00 0.00 0.00 82 1009.3
20260509003031 23 29 1.6 8.0 0.00 0.00 0.00 82 1009.3
20260509002510 23 29 1.6 8.0 0.00 0.00 0.00 82 1009.2
20260509002009 23 60 0.0 6.4 0.00 0.00 0.00 82 1009.3
20260509001522 23 60 1.6 6.4 0.00 0.00 0.00 82 1009.3
20260509001006 23 66 0.0 6.4 0.00 0.00 0.00 82 1009.4
20260509000509 23 57 0.0 8.0 0.00 0.00 0.00 81 1009.4
20260509000010 23 56 3.2 8.0 0.00 0.00 0.00 81 1009.4
20260508235508 23 22 1.6 6.4 0.00 0.00 0.00 81 1009.5
20260508235006 23 22 0.0 6.4 0.00 0.00 0.00 81 1009.5
20260508234516 23 10 0.0 6.4 0.00 0.00 0.00 81 1009.5
20260508234008 23 11 0.0 9.7 0.00 0.00 0.00 81 1009.6
20260508233509 23 11 1.6 9.7 0.00 0.00 0.00 81 1009.5
20260508233020 23 46 0.0 8.0 0.00 0.00 0.00 81 1009.4
20260508232513 23 37 0.0 8.0 0.00 0.00 0.00 80 1009.4
20260508232010 23 41 3.2 8.0 0.00 0.00 0.00 80 1009.4
20260508231522 23 95 1.6 6.4 0.00 0.00 0.00 80 1009.3
20260508231007 23 46 1.6 8.0 0.00 0.00 0.00 80 1009.4
20260508230510 23 42 1.6 14.5 0.00 0.00 0.00 80 1009.4
20260508230026 23 56 3.2 14.5 0.00 0.00 0.00 79 1009.4
20260508225508 23 78 3.2 9.7 0.00 0.00 0.00 79 1009.2
20260508225013 23 32 1.6 8.0 0.00 0.00 0.00 80 1009.3
20260508224526 23 29 3.2 8.0 0.00 0.00 0.00 79 1009.5
20260508224006 23 45 1.6 6.4 0.00 0.00 0.00 79 1009.5
20260508223507 23 40 0.0 4.8 0.00 0.00 0.00 79 1009.5
20260508223016 24 40 1.6 6.4 0.00 0.00 0.00 78 1009.5
20260508222509 24 45 1.6 8.0 0.00 0.00 0.00 79 1009.4
20260508222012 23 62 1.6 8.0 0.00 0.00 0.00 78 1009.5
20260508221512 24 11 1.6 12.9 0.00 0.00 0.00 79 1009.4
20260508221011 24 14 4.8 12.9 0.00 0.00 0.00 78 1009.5
20260508220509 24 19 3.2 11.3 0.00 0.00 0.00 78 1009.6
20260508220018 24 21 1.6 11.3 0.00 0.00 0.00 77 1009.6
20260508215509 24 41 3.2 8.0 0.00 0.00 0.00 77 1009.7
20260508215011 24 44 1.6 8.0 0.00 0.00 0.00 77 1009.7
20260508214518 24 118 1.6 8.0 0.00 0.00 0.00 76 1009.7
20260508214009 24 91 1.6 8.0 0.00 0.00 0.00 76 1009.7
20260508213510 24 39 1.6 12.9 0.00 0.00 0.00 77 1009.8